Location: *
(10.0200°N, 126.0380°E)
Time: 18:24:36
(UTC+00:00)

Daily predictions for brighter satellites

Satellite Brightness Start Highest point End
(mag) Time Altitude Azimuth Time Altitude Azimuth Time Altitude Azimuth
ARGOS 3.4 12:07:52 59° NNE 12:07:52 59° NNE 12:12:19 10° N
Cosmos 2297 Rocket 3.2 12:08:13 10° NW 12:13:26 40° WSW 12:14:43 35° SW
Cosmos 2082 4.3 12:19:56 10° NNW 12:25:00 54° W 12:25:00 54° W
ATLAS 3B CENTAUR R/B 4.0 12:05:55 10° WNW 12:30:29 76° NNE 12:33:46 58° E
Atlas Centaur 2 4.4 18:02:20 23° NE 18:02:20 23° NE 18:04:20 10° NE
SJ 16-02 4.2 18:34:55 14° NE 18:34:55 14° NE 18:35:37 10° NNE
Centaur D-1AR AC-48 4.1 18:38:46 53° SSE 18:38:46 53° SSE 19:13:26 10° ESE
Centaur D-1AR AC-48 4.1 18:38:45 53° SSE 18:38:45 53° SSE 19:13:26 10° ESE
Centaur D-1AR AC-48 4.1 18:38:45 54° SSE 18:38:45 54° SSE 19:13:26 10° ESE
Centaur D-1AR AC-41 4.2 18:38:52 66° N 18:38:52 66° N 18:57:06 10° ENE
Cosmos 2082 Rocket 4.3 18:49:55 17° SE 18:51:31 19° ESE 18:55:23 10° ENE
CZ-3B R/B 4.4 18:50:55 17° N 18:52:50 20° NE 18:59:45 10° E
USA 238 4.5 18:45:42 10° NNW 19:02:04 - SSE 18:50:25 44° NNW
Ariane H10 3.7 19:03:00 54° SSE 19:03:09 54° SSE 19:25:06 10° E
Cosmos 1656 Rocket 4.1 18:58:42 10° N 19:03:26 58° NNE 19:03:26 58° NNE
ARIANE 5 R/B 4.3 19:06:18 20° SE 19:06:18 20° SE 19:09:59 10° ESE
Mugunghwa Rocket 4.3 19:07:58 48° NW 19:10:09 72° NNE 19:16:58 10° ESE
SWIFT 4.1 19:12:18 29° NE 19:12:18 29° NE 19:15:12 10° ENE
Cosmos 962 Rocket 4.3 19:10:03 10° N 19:15:57 80° WNW 19:15:57 80° WNW
COSMOS 2406 4.3 19:21:17 31° NW 19:21:17 31° NW 19:24:48 10° N
Meteor 1-15 Rocket 4.2 19:23:27 68° S 19:24:14 88° E 19:29:58 10° N
Cosmos 2298 Rocket 3.9 19:24:33 88° ESE 19:24:34 88° ESE 19:29:51 10° NNE
CZ-2C R/B 3.7 19:21:03 10° NE 19:25:20 34° E 19:27:36 22° SSE
H-II Stage 2 4.0 19:33:06 14° ENE 19:33:06 14° ENE 19:33:26 10° ENE
CZ-3B R/B 3.5 19:30:07 41° SW 19:32:41 47° SSW 19:52:14 10° SE
PSLV R/B 4.2 19:33:32 60° ESE 19:33:55 64° ENE 19:37:55 10° N
Cosmos 2150 Rocket 3.8 19:35:22 70° SW 19:35:53 78° WNW 19:41:05 10° N
BLOCK DM-SL R/B 3.6 19:39:17 14° SE 19:39:17 14° SE 19:41:01 10° SE
CZ-4B R/B 3.1 19:36:08 10° NNE 19:39:38 55° E 19:39:41 55° ESE
NOSS 3-2 (C) 4.1 19:31:18 10° NNW 19:39:41 79° WSW 19:48:14 10° SSE
Cosmos 2341 Rocket 4.3 19:41:36 10° NNW 19:47:33 43° W 19:48:26 41° WSW
Atlas Centaur 2 4.1 19:44:55 16° NW 19:47:34 20° NNW 19:51:36 10° NNE
Cosmos 1959 Rocket 4.4 19:42:49 10° N 19:49:06 85° W 19:55:19 10° S
MSX 3.7 19:44:24 10° N 19:50:07 70° WNW 19:52:45 33° SSW
PAYLOAD A 4.0 19:47:53 10° N 19:53:16 74° WNW 19:56:02 30° SSW
ATLAS V CENTAUR R/B 4.2 19:56:28 15° SE 19:56:28 15° SE 19:56:59 10° ESE
Cosmos 2366 rocket 3.8 19:50:47 10° N 19:56:53 76° W 20:03:03 10° S
IDEFIX/ARIANE 42P 3.3 19:53:05 10° NNW 19:57:35 31° WNW 19:57:44 31° W
Meteor 1-31 Rocket 2.6 19:53:52 10° N 19:57:39 81° W 19:58:40 47° SSW
Cosmos 923 Rocket 4.1 19:53:10 10° NNW 19:58:21 55° WSW 20:03:33 10° S
Meteor PRIRODA 4.0 19:55:47 10° NNE 19:59:25 62° E 20:01:30 24° S
Cosmos 1544 Rocket 3.6 20:01:06 43° SW 20:02:02 52° W 20:06:15 10° N
Delta 2 Rocket 4.1 20:01:37 29° W 20:04:33 59° NNW 20:10:42 10° NE
Meteor 1-22 Rocket 4.3 19:59:04 10° S 20:04:33 72° E 20:09:52 10° N
Cosmos 2218 Rocket 4.0 19:58:31 10° NNW 20:04:36 58° W 20:10:46 10° S
Palapa B4 Rocket 4.1 20:02:14 28° WSW 20:07:04 79° SSE 20:12:33 10° ENE
Palapa 6 Rocket 4.2 20:03:24 26° W 20:07:07 57° NNW 20:12:39 10° ENE
Ariane H10 4.1 20:09:27 23° SSW 20:09:36 23° SSW 20:12:22 10° SE
TELKOM 3 4.1 20:10:39 34° NNW 20:10:39 34° NNW 20:12:26 10° NNE
Cosmos 1833 Rocket 3.4 20:08:59 28° WSW 20:10:46 35° WNW 20:15:52 10° N
Cosmos 1455 Rocket 3.9 20:11:48 29° W 20:12:10 29° W 20:15:59 10° NNW
CZ-4B R/B 4.4 20:09:21 10° NNE 20:14:35 43° ESE 20:19:52 10° S
Cosmos 405 Rocket 2.7 20:11:19 14° S 20:14:38 87° E 20:18:37 10° N
Cosmos 1805 3.1 20:13:08 22° SSW 20:15:30 65° W 20:19:20 10° N
IUS-1 SRM-2 4.0 20:12:49 17° W 20:17:11 31° NW 20:19:58 10° NNE
PSLV R/B 3.9 20:19:36 10° N 20:23:15 50° WNW 20:25:57 17° SSW
In-Cosmos 22 4.3 20:18:05 10° N 20:23:40 76° E 20:29:05 10° S
TRAILBLAZER 4.4 20:20:34 10° NNW 20:25:04 71° WSW 20:29:30 10° SSE
Cosmos 1680 Rocket 4.0 20:20:19 10° NW 20:25:08 37° W 20:29:56 10° SSW
Helios 1A Rocket 2.9 20:21:20 10° N 20:25:23 61° WNW 20:29:15 11° SSW
GPS 2-15 Rocket1 3.1 20:22:33 23° WSW 20:25:37 88° SSE 20:30:32 10° ENE
Aureole 2 Rocket 2.1 20:23:18 10° N 20:26:14 72° ENE 20:29:01 10° SSE
ARIANE 5 DEB (SYLDA) 4.4 20:25:33 18° SW 20:27:10 22° S 20:29:48 10° SE
GENESIS II 4.1 20:25:54 14° SSW 20:29:07 87° ESE 20:33:03 10° NNE
CZ-4B DEB 4.2 20:27:30 10° N 20:32:58 74° WNW 20:38:28 10° SSW
Cosmos 158 Rocket 4.0 20:29:40 10° NNW 20:34:47 87° ENE 20:40:03 10° SSE
Cosmos 2082 Rocket 3.1 20:31:49 16° WSW 20:35:16 29° WNW 20:40:04 10° NNW
CENTAUR R/B 3.4 20:28:02 10° NW 20:36:14 48° WSW 20:44:14 10° S
ATLAS 3B R/B 3.3 20:30:32 10° NW 20:36:30 33° WSW 20:42:40 10° S
DELTA 2 R/B (1) 3.6 20:31:00 10° NW 20:36:33 89° NE 20:42:05 10° SE
Gbstr 26 Del rocket 3.7 20:33:08 10° NNW 20:38:10 83° NE 20:44:31 10° SE
Cosmos 1892 Rocket 4.1 20:34:45 10° NNW 20:38:45 37° W 20:42:49 10° SSW
Cosmos 1125 Rocket 4.2 20:35:54 12° SW 20:40:05 34° WNW 20:44:46 10° N
Cosmos 1484 Rocket 2.9 20:45:00 10° N 20:48:51 56° W 20:52:46 10° SSW
Ariane H10+ 3.9 20:45:46 10° SSW 20:49:13 17° SSE 20:55:31 10° ESE
H-2A R/B 2.1 20:48:44 10° WNW 20:50:03 18° NNW 20:52:02 10° NNE
Meteor 2-5 Rocket 3.7 20:45:44 10° N 20:51:17 81° W 20:56:48 10° S
SWIFT 2.3 20:49:16 10° WNW 20:53:27 86° SSW 20:57:39 10° ESE
SL-27 R/B 3.4 20:51:22 10° SW 20:54:09 25° WNW 20:56:56 10° NNW
Cosmos 1626 Rocket 3.7 20:50:17 10° N 20:54:44 86° E 20:59:12 10° S
GPS 2-18 Rocket1 3.7 20:52:21 10° W 20:55:47 36° SSW 20:59:16 10° SE
COSMO-SKYMED 1 3.9 20:51:59 10° SSE 20:56:07 45° ENE 21:00:15 10° N
ALOS 2.6 20:54:35 10° NNE 20:59:14 72° ESE 21:03:52 10° S
Okean O Rocket 2.0 20:57:07 10° N 21:01:12 42° WNW 21:05:18 10° SSW
